Regional Weather Roundup
Issued by NWS Boston, MA

Home | Current Version | Previous Version | Text Only | Print | Product List | Glossary On
Versions: 1 2 3 4 5 6 7 8 9 10 11 12 13 14 15 16 17 18 19 20 21 22 23 24 25 26 27 28
000
ASUS41 KBOX 281010
RWRBOX

REGIONAL WEATHER ROUNDUP
NATIONAL WEATHER SERVICE TAUNTON MA
600 AM EDT SAT MAY 28 2016

NOTE:  "FAIR" INDICATES FEW OR NO CLOUDS BELOW 12,000 FEET WITH NO
SIGNIFICANT WEATHER AND/OR OBSTRUCTIONS TO VISIBILITY.  THE FOLLOWING
OBSERVATION LOCATIONS DO NOT REPORT PRESENT WEATHER...PROVINCETOWN...
SMITHFIELD...BLOCK ISLAND...KEENE...AND OXFORD.

MAZALL-281100-
EASTERN MASSACHUSETTS

CITY           SKY/WX    TMP DP  RH WIND       PRES   REMARKS
BOSTON         PTCLDY    67  58  72 SW10      30.04S
BEVERLY        PTCLDY    66  59  78 SW6       30.03R
LAWRENCE       PTCLDY    67  61  81 SW6       30.05R
BEDFORD        PTCLDY    65  60  84 SW6       30.04R
BLUE HILL        N/A     63  57  81 SW14      30.05S
NORWOOD        PTCLDY    65  58  78 CALM      30.05R
MARSHFIELD     PTCLDY    66  57  72 SW8G20    30.04R
PLYMOUTH       CLOUDY    64  58  80 S9        30.08R
TAUNTON        MOCLDY    67  56  67 VRB6      30.06S
NEW BEDFORD    CLOUDY    63  57  81 SW7       30.08R
$$

MAZALL-281100-
CAPE COD AND THE ISLANDS

CITY           SKY/WX    TMP DP  RH WIND       PRES   REMARKS
FALMOUTH       PTCLDY    64  59  82 SW15G22   30.10R
HYANNIS        CLOUDY    65  59  81 SW17      30.08R
CHATHAM        CLOUDY    66  61  84 SW14G32   30.10R
PROVINCETOWN   CLOUDY    61  57  87 SW15G21   30.07R
NANTUCKET      MOCLDY    61  58  90 W18       30.13R
MARTHAS VNYRD  MOCLDY    62  58  86 SW12      30.11R
$$

MAZALL-281100-
CENTRAL AND WESTERN MASSACHUSETTS

CITY           SKY/WX    TMP DP  RH WIND       PRES   REMARKS
WORCESTER      CLEAR     64  60  87 W12       30.09R
FITCHBURG      CLOUDY    70  62  76 N6        30.06R
ORANGE         PTCLDY    64  61  90 S3        30.08R
SPRINGFIELD    PTCLDY    62  60  93 CALM      30.07R
WESTFIELD      PTCLDY    62  60  93 S3        30.08R
NORTH ADAMS    FOG       65  64  97 CALM      30.10R VSB 1
PITTSFIELD     CLOUDY    65  63  93 CALM      30.10R FOG
$$

RIZALL-281100-
RHODE ISLAND

CITY           SKY/WX    TMP DP  RH WIND       PRES   REMARKS
PROVIDENCE     MOCLDY    64  57  78 S6        30.08S
NEWPORT        PTCLDY    62  57  83 S5        30.08S
BLOCK ISLAND   CLEAR     59  57  93 SW16      30.11S
SMITHFIELD       N/A    N/A N/A N/A MISG        N/A
WESTERLY       PTCLDY    65  55  70 W5        30.10R
$$

CTZALL-281100-
CONNECTICUT

CITY           SKY/WX    TMP DP  RH WIND       PRES   REMARKS
BRADLEY INTL   MOCLDY    65  60  84 S5        30.07R
HARTFORD       PTCLDY    69  61  75 S6        30.08R
BRIDGEPORT     PTCLDY    67  59  75 SW3       30.10R
DANBURY        PTCLDY    63  61  93 CALM      30.11R FOG
GROTON         MOCLDY    64  58  80 SW8       30.09R
NEW HAVEN      MOCLDY    65  58  78 S5        30.10R
CHESTER        FAIR      66  57  72 SW9G15    30.10R
MERIDEN        PTCLDY    66  59  78 S3        30.09R
WILLIMANTIC    PTCLDY    63  58  83 CALM      30.09R
OXFORD           N/A     63  57  82 SW3       30.12R
$$

MEZ002-015-021-024-NHZ003-005-008-011-012-014-VTZ005-008-281100-
NORTHERN NEW ENGLAND

CITY           SKY/WX    TMP DP  RH WIND       PRES   REMARKS
PORTLAND ME    CLOUDY    53  52  96 CALM      30.04R FOG
BANGOR ME      MOCLDY    55  52  89 S3        30.03R FOG
CONCORD NH     MOCLDY    61  59  93 CALM      30.05R FOG
MANCHESTER NH  MOCLDY    68  62  81 CALM      30.03R
NASHUA NH      CLOUDY    68  64  87 CALM      30.05R
PORTSMOUTH NH  MOCLDY    56  53  91 CALM      30.02R
JAFFREY NH     CLEAR     64  61  90 S6        30.09R FOG
KEENE NH       CLEAR     63  61  94 CALM      30.09R VSB 1
BURLINGTON VT  FAIR      70  65  84 CALM      30.04R
MT. WASHINGTON FOG       54  54 100 W39         N/A  VSB 0
$$

NYZ052-076-281100-
EASTERN NEW YORK

CITY           SKY/WX    TMP DP  RH WIND       PRES   REMARKS
ALBANY         MOCLDY    68  66  93 CALM      30.07R
NEW YORK CITY  MOCLDY    73  63  70 SW8       30.10R
$$

ANZALL-281100-
MARINE OBSERVATIONS

STATION/POSITION TIME  TEMP    WIND        PRES    VSBY  WAVE
                       AIR SEA DIR/SP/G                  HT/PER
                 (UTC) (F)     (DEG/KT/KT) (MB)    (MI)  (FT/S)
BOSTON BUOY      0950   60 56  220/  6/  6 1017.0S         2/ 5
BUZZARDS BAY     0900   60     220/ 21/ 23 1019.0F
NANTUCKET SOUND  0950   64 58  240/ 27/ 37 1018.4S         2/ 3
MASS BAY-STELLWA 0904   60 55                N/A    1 7/8  2/ 5
ISLE OF SHOALS   1000   55     360/  5/  5 1016.9R
S OF BLOCK IS    0925      56                N/A           4/ 5
$$

......................KEY.........................
  SKY/WX - SKY CONDITION/PRESENT WEATHER
  TMP    - TEMPERATURE IN FAHRENHEIT
  DWPT   - DEWPOINT IN FAHRENHEIT
  RH     - RELATIVE HUMIDITY IN PERCENT
  WIND   - DIRECTION AND SPEED IN MPH
  PRES   - MEAN SEA LEVEL PRESSURE IN INCHES OF HG
  WCI    - WIND CHILL INDEX
  VSB    - VISIBILITY IN MILES
  HX     - HEAT INDEX
  TC     - TEMPERATURE IN CELSIUS
  VRB    - VARIABLE WIND DIRECTION
  N/A    - NOT AVAILABLE




USA.gov is the U.S. government's official web portal to all federal, state and local government web resources and services.